VA3VWX-13 Weather Reports


time (UTC)temp
C
wind
direction
speed
KPH
gust
KPH
rain 1hr
cm
rain 24hr
cm
rain mn
cm
humidity
%
barometer
mb
20260504002331 11 205 0.0 3.2 0.00 0.00 0.00 74 1008.0
20260504001829 11 184 0.0 11.3 0.00 0.00 0.00 73 1008.0
20260504001336 11 217 6.4 11.3 0.00 0.00 0.00 73 1008.0
20260504000842 11 231 4.8 9.7 0.00 0.00 0.00 72 1008.1
20260504000401 11 200 1.6 12.9 0.00 0.00 0.00 72 1008.1
20260503235849 11 203 4.8 12.9 0.00 0.00 0.00 71 1008.1
20260503235327 11 231 4.8 9.7 0.00 0.00 0.00 72 1008.1
20260503234834 11 278 1.6 11.3 0.00 0.00 0.00 72 1008.2
20260503234340 11 238 4.8 11.3 0.00 0.00 0.00 72 1008.2
20260503233834 11 270 6.4 9.7 0.00 0.00 0.00 72 1008.2
20260503233341 11 285 4.8 9.7 0.00 0.00 0.00 72 1008.2
20260503232849 11 301 3.2 9.7 0.00 0.00 0.00 72 1008.3
20260503232326 11 268 1.6 11.3 0.00 0.00 0.00 72 1008.3
20260503231832 11 252 3.2 11.3 0.00 0.00 0.00 72 1008.4
20260503231338 11 267 3.2 17.7 0.00 0.00 0.00 72 1008.4
20260503230845 11 295 8.0 17.7 0.00 0.00 0.00 72 1008.5
20260503230404 11 271 6.4 11.3 0.00 0.00 0.00 72 1008.5
20260503225825 11 255 4.8 17.7 0.00 0.00 0.00 71 1008.5
20260503225340 11 276 9.7 17.7 0.00 0.00 0.00 71 1008.5
20260503224837 11 284 9.7 22.5 0.00 0.00 0.00 71 1008.6
20260503224324 11 295 9.7 22.5 0.00 0.00 0.00 72 1008.7
20260503223832 11 291 9.7 20.9 0.00 0.00 0.00 72 1008.7
20260503223329 11 231 8.0 20.9 0.00 0.00 0.00 73 1008.7
20260503222835 11 283 8.0 22.5 0.00 0.00 0.00 73 1008.8
20260503222342 11 285 11.3 22.5 0.00 0.00 0.00 73 1008.8
20260503221845 11 304 8.0 19.3 0.00 0.00 0.00 73 1008.9
20260503221342 11 307 9.7 24.1 0.00 0.00 0.00 73 1008.9
20260503220829 11 254 12.9 24.1 0.00 0.00 0.00 74 1009.0
20260503220347 11 294 9.7 19.3 0.00 0.00 0.00 74 1009.0
20260503215837 11 275 11.3 27.4 0.00 0.00 0.00 74 1009.1
20260503215335 11 297 9.7 27.4 0.00 0.00 0.00 73 1009.1
20260503214822 11 296 8.0 25.7 0.00 0.00 0.00 73 1009.0
20260503214351 11 283 16.1 27.4 0.00 0.00 0.00 72 1009.1
20260503213829 12 292 11.3 24.1 0.00 0.00 0.00 72 1009.1
20260503213334 11 285 14.5 24.1 0.00 0.00 0.00 71 1009.0
20260503212841 11 300 9.7 22.5 0.00 0.00 0.00 73 1009.0
20260503212350 11 280 9.7 24.1 0.00 0.00 0.00 73 1009.0
20260503211829 11 309 12.9 24.1 0.00 0.00 0.00 73 1009.1
20260503211335 11 277 11.3 22.5 0.00 0.00 0.00 73 1009.0
20260503210844 12 292 11.3 22.5 0.00 0.00 0.00 71 1009.0
20260503210350 12 254 11.3 22.5 0.00 0.00 0.00 70 1008.9
20260503205835 12 248 14.5 29.0 0.00 0.00 0.00 68 1008.8
20260503205342 13 295 16.1 29.0 0.00 0.00 0.00 63 1008.8
20260503204849 13 293 14.5 24.1 0.00 0.00 0.00 59 1008.7
20260503204325 13 297 11.3 24.1 0.00 0.00 0.00 57 1008.6
20260503203833 13 271 9.7 27.4 0.00 0.00 0.00 56 1008.4
20260503203340 13 296 16.1 27.4 0.00 0.00 0.00 56 1008.4
20260503202839 14 289 12.9 32.2 0.00 0.00 0.00 55 1008.5
20260503202326 15 258 17.7 32.2 0.00 0.00 0.00 50 1008.4
20260503201834 15 289 17.7 27.4 0.00 0.00 0.00 49 1008.2
20260503201332 14 305 12.9 25.7 0.00 0.00 0.00 50 1008.2
20260503200837 14 281 14.5 25.7 0.00 0.00 0.00 52 1008.2
20260503200355 13 231 11.3 24.1 0.00 0.00 0.00 55 1008.2
20260503195844 12 236 0.0 3.2 0.00 0.00 0.00 58 1008.3
20260503195323 11 286 0.0 3.2 0.00 0.00 0.00 61 1008.4
20260503194830 11 158 0.0 3.2 0.00 0.00 0.00 61 1008.4
20260503194337 10 232 0.0 6.4 0.00 0.00 0.00 63 1008.5
20260503193921 10 119 3.2 6.4 0.00 0.00 0.00 64 1008.5
20260503193323 10 107 3.2 8.0 0.00 0.00 0.00 63 1008.5
20260503192851 11 90 3.2 8.0 0.00 0.00 0.00 63 1008.5
20260503192327 10 113 1.6 4.8 0.00 0.00 0.00 63 1008.6
20260503191835 10 151 1.6 6.4 0.00 0.00 0.00 63 1008.7
20260503191341 10 135 0.0 6.4 0.00 0.00 0.00 65 1008.8
20260503190840 10 93 3.2 9.7 0.00 0.00 0.00 65 1008.9
20260503190358 10 97 6.4 12.9 0.00 0.00 0.00 64 1009.0
20260503185827 10 158 4.8 14.5 0.00 0.00 0.00 62 1009.1
20260503185336 10 127 8.0 14.5 0.00 0.00 0.00 60 1009.3
20260503184834 10 118 4.8 12.9 0.00 0.00 0.00 58 1009.4
20260503184340 10 118 6.4 11.3 0.00 0.00 0.00 56 1009.6
20260503183847 10 111 4.8 16.1 0.00 0.00 0.00 55 1009.6
20260503183325 10 124 6.4 16.1 0.00 0.00 0.00 53 1009.7
20260503182829 10 106 8.0 16.1 0.00 0.00 0.00 52 1009.7
20260503182335 10 130 11.3 16.1 0.00 0.00 0.00 50 1009.8
20260503181833 10 105 9.7 16.1 0.00 0.00 0.00 48 1009.9
20260503181340 10 127 6.4 16.1 0.00 0.00 0.00 48 1010.1
20260503180823 11 92 8.0 16.1 0.00 0.00 0.00 47 1010.2
20260503180340 11 149 8.0 16.1 0.00 0.00 0.00 46 1010.3
20260503175850 11 144 8.0 16.1 0.00 0.00 0.00 48 1010.3
20260503175327 11 152 8.0 14.5 0.00 0.00 0.00 47 1010.5
20260503174834 11 158 8.0 14.5 0.00 0.00 0.00 47 1010.5
20260503174340 12 134 6.4 11.3 0.00 0.00 0.00 47 1010.6
20260503173837 11 193 6.4 9.7 0.00 0.00 0.00 47 1010.8
20260503173322 12 113 4.8 11.3 0.00 0.00 0.00 47 1010.8
20260503172830 11 198 4.8 16.1 0.00 0.00 0.00 49 1010.8
20260503172329 11 127 8.0 16.1 0.00 0.00 0.00 46 1010.9
20260503171835 11 156 3.2 12.9 0.00 0.00 0.00 47 1011.1
20260503171337 11 139 6.4 14.5 0.00 0.00 0.00 46 1011.1
20260503170843 11 128 4.8 14.5 0.00 0.00 0.00 46 1011.2
20260503170401 11 213 9.7 19.3 0.00 0.00 0.00 43 1011.3
20260503150823 7 210 6.4 11.3 0.00 0.00 0.00 64 1012.9
20260503150343 7 167 6.4 12.9 0.00 0.00 0.00 63 1013.0
20260503131327 7 263 4.8 9.7 0.00 0.00 0.00 58 1013.7
20260503130834 6 285 4.8 8.0 0.00 0.00 0.00 59 1013.6
20260503130351 6 293 4.8 12.9 0.00 0.00 0.00 59 1013.7
20260503110356 4 302 0.0 0.0 0.00 0.00 0.00 65 1013.7
20260503090344 2 304 0.0 0.0 0.00 0.00 0.00 64 1014.1
20260503081329 0 304 0.0 0.0 0.00 0.00 0.00 69 1014.3
20260503080850 0 304 0.0 0.0 0.00 0.00 0.00 69 1014.3
20260503080408 0 304 0.0 0.0 0.00 0.00 0.00 69 1014.3
20260503072832 1 304 0.0 0.0 0.00 0.00 0.00 65 1014.4
20260503072340 1 304 0.0 0.0 0.00 0.00 0.00 64 1014.4
20260503071847 1 304 0.0 0.0 0.00 0.00 0.00 64 1014.4
20260503071324 1 304 0.0 0.0 0.00 0.00 0.00 63 1014.4
20260503070832 2 304 0.0 0.0 0.00 0.00 0.00 62 1014.4
20260503070351 2 304 0.0 0.0 0.00 0.00 0.00 62 1014.4
20260503054826 2 302 0.0 1.6 0.00 0.00 0.00 60 1014.8
20260503054333 2 302 0.0 0.0 0.00 0.00 0.00 60 1014.8
20260503053841 2 302 0.0 0.0 0.00 0.00 0.00 60 1014.9
20260503053344 2 302 0.0 0.0 0.00 0.00 0.00 60 1014.9
20260503052842 2 302 0.0 0.0 0.00 0.00 0.00 60 1015.0
20260503052328 3 302 0.0 0.0 0.00 0.00 0.00 59 1015.0
20260503051835 3 302 0.0 0.0 0.00 0.00 0.00 59 1015.0
20260503051333 3 302 0.0 0.0 0.00 0.00 0.00 58 1015.0
20260503050840 3 302 0.0 1.6 0.00 0.00 0.00 57 1015.0
20260503050358 3 302 0.0 3.2 0.00 0.00 0.00 56 1015.0
20260503045829 4 294 1.6 3.2 0.00 0.00 0.00 56 1015.0
20260503045325 4 299 1.6 3.2 0.00 0.00 0.00 55 1015.0
20260503044832 4 302 1.6 3.2 0.00 0.00 0.00 55 1015.0
20260503044340 4 306 0.0 0.0 0.00 0.00 0.00 55 1015.0
20260503043847 4 309 0.0 3.2 0.00 0.00 0.00 55 1015.0
20260503043324 4 293 0.0 3.2 0.00 0.00 0.00 55 1015.0
20260503042831 4 298 1.6 4.8 0.00 0.00 0.00 55 1015.0
20260503042328 5 306 1.6 6.4 0.00 0.00 0.00 54 1015.0
20260503041835 5 319 1.6 6.4 0.00 0.00 0.00 56 1015.1
20260503041324 5 310 1.6 4.8 0.00 0.00 0.00 54 1015.2
20260503040848 5 300 1.6 4.8 0.00 0.00 0.00 54 1015.2
20260503040403 5 290 1.6 6.4 0.00 0.00 0.00 54 1015.2
20260503035824 5 290 3.2 8.0 0.00 0.00 0.00 54 1015.1
20260503035329 5 308 1.6 8.0 0.00 0.00 0.00 53 1015.1
20260503034834 5 304 3.2 4.8 0.00 0.00 0.00 54 1015.2
20260503034331 5 294 1.6 3.2 0.00 0.00 0.00 54 1015.1
20260503033839 5 290 1.6 3.2 0.00 0.00 0.00 55 1015.1
20260503033326 5 297 0.0 3.2 0.00 0.00 0.00 55 1015.2
20260503032824 5 295 1.6 3.2 0.00 0.00 0.00 56 1015.2
20260503032331 5 286 1.6 4.8 0.00 0.00 0.00 55 1015.1
20260503031847 5 297 1.6 4.8 0.00 0.00 0.00 56 1015.1
20260503031324 5 275 0.0 3.2 0.00 0.00 0.00 56 1015.1
20260503030830 5 286 0.0 3.2 0.00 0.00 0.00 56 1015.1
20260503030350 5 268 1.6 3.2 0.00 0.00 0.00 56 1015.1
20260503025838 5 269 1.6 3.2 0.00 0.00 0.00 56 1015.2
20260503025333 5 253 1.6 4.8 0.00 0.00 0.00 56 1015.2
20260503024839 5 274 1.6 4.8 0.00 0.00 0.00 56 1015.2
20260503024325 5 253 3.2 4.8 0.00 0.00 0.00 57 1015.2
20260503023850 5 270 1.6 4.8 0.00 0.00 0.00 56 1015.3
20260503022830 5 283 3.2 6.4 0.00 0.00 0.00 55 1015.3
20260503022337 5 265 1.6 6.4 0.00 0.00 0.00 55 1015.4
20260503021835 5 272 1.6 6.4 0.00 0.00 0.00 55 1015.4
20260503021342 5 237 3.2 4.8 0.00 0.00 0.00 54 1015.4
20260503020829 6 249 1.6 4.8 0.00 0.00 0.00 54 1015.3
20260503020346 6 247 1.6 4.8 0.00 0.00 0.00 54 1015.3
20260503015826 6 266 0.0 3.2 0.00 0.00 0.00 58 1015.3
20260503015333 6 256 1.6 3.2 0.00 0.00 0.00 54 1015.3
20260503014843 6 266 1.6 3.2 0.00 0.00 0.00 53 1015.2
20260503014349 6 266 0.0 3.2 0.00 0.00 0.00 53 1015.2
20260503013827 6 256 1.6 3.2 0.00 0.00 0.00 53 1015.3
20260503013330 6 253 0.0 4.8 0.00 0.00 0.00 52 1015.3
20260503012827 6 250 0.0 4.8 0.00 0.00 0.00 52 1015.2
20260503012335 6 259 0.0 8.0 0.00 0.00 0.00 53 1015.2
20260503011842 6 239 1.6 8.0 0.00 0.00 0.00 52 1015.2
20260503011349 6 266 1.6 8.0 0.00 0.00 0.00 51 1015.2
20260503010826 7 257 3.2 9.7 0.00 0.00 0.00 50 1015.3
20260503010341 7 281 3.2 9.7 0.00 0.00 0.00 50 1015.2
20260503005831 7 264 1.6 6.4 0.00 0.00 0.00 50 1015.2
20260503005337 7 281 3.2 6.4 0.00 0.00 0.00 50 1015.1
20260503004834 7 281 1.6 3.2 0.00 0.00 0.00 49 1015.1
20260503004323 7 285 1.6 3.2 0.00 0.00 0.00 48 1015.0
20260503003830 7 270 1.6 8.0 0.00 0.00 0.00 48 1015.0
20260503003327 7 310 3.2 8.0 0.00 0.00 0.00 48 1015.0
20260503002833 7 326 3.2 6.4 0.00 0.00 0.00 48 1015.0